Location: Pasadena, ca
(34.1243°N, 118.1037°W)
Time: 01:44:42
(UTC-08:00)

Amateur Radio Satellites - All Passes

Search period start: 25 November 2017 01:14
Search period end: 26 November 2017 01:14
Location: Pasadena, ca, 34.1243°N, 118.1037°W

Satellite Date Start Highest point End Downlink Frequencies (MHz)
Time Altitude Azimuth
POLYITAN 1 25 Nov 01:15:11 01:15:32 10° 294° (WNW) 01:15:53 437.675
BUGSAT 1 25 Nov 01:17:44 01:21:36 48° 285° (WNW) 01:25:27 437.445
ISS 25 Nov 01:17:48 01:20:18 20° 33° (NNE) 01:22:47 437.550
MOZHAYETS 4 25 Nov 01:18:30 01:21:13 16° 67° (ENE) 01:23:55
BEESAT 25 Nov 01:34:14 01:37:33 19° 67° (ENE) 01:40:52 436.000
DX 1 25 Nov 01:38:08 01:41:52 28° 263° (W) 01:45:38 434.975-435.025
50 SAT 25 Nov 01:39:09 01:41:02 15° 265° (W) 01:42:56 437.505
Oscar 19 25 Nov 01:44:42 01:49:48 64° 286° (WNW) 01:54:55 437.125/150
ITUPSAT 1 25 Nov 01:46:20 01:50:12 25° 69° (ENE) 01:54:04 437.325
BEESAT 2 25 Nov 01:51:41 01:55:39 73° 117° (ESE) 01:59:41 435.950
nSIGHT-1 25 Nov 01:55:15 01:58:24 59° 41° (NE) 02:01:32 .
M-CUBED/EXP-1 PRIME 25 Nov 01:58:39 02:02:13 22° 100° (E) 02:05:45 437.505
AO-85 25 Nov 02:01:09 02:04:23 26° 112° (ESE) 02:07:41 145.980
BEESAT 3 25 Nov 02:08:18 02:11:13 19° 308° (NW) 02:14:09 437.485
UKube-1 25 Nov 02:11:34 02:14:38 19° 265° (W) 02:17:43 .
RS-15 25 Nov 02:32:48 02:44:24 57° 55° (NE) 02:55:20 29.354- 29.394
Gurwin Techsat 1B 25 Nov 02:45:57 02:50:10 24° 292° (WNW) 02:54:22 435.225
AO-7 25 Nov 02:51:03 02:58:59 46° 101° (ESE) 03:06:53 .
MOZHAYETS 4 25 Nov 02:53:40 02:57:58 41° 261° (W) 03:02:17
ISS 25 Nov 02:53:51 02:56:49 33° 229° (SW) 02:59:47 437.550
BEESAT 25 Nov 03:10:36 03:15:01 37° 261° (W) 03:19:26 436.000
CUBESAT XI-V 25 Nov 03:16:39 03:21:13 70° 75° (ENE) 03:25:49 437.345
ITUPSAT 1 25 Nov 03:23:46 03:27:51 28° 263° (W) 03:31:57 437.325
M-CUBED/EXP-1 PRIME 25 Nov 03:32:24 03:36:32 33° 293° (WNW) 03:40:39 437.505
AO-85 25 Nov 03:41:48 03:44:43 20° 308° (NW) 03:47:42 145.980
ITAMSAT 1 25 Nov 03:46:46 03:51:59 81° 284° (WNW) 03:57:09 435.822/435.867
YUBILEINY 25 Nov 03:54:59 04:02:27 33° 85° (E) 04:09:56 435.215
KKS-1 25 Nov 04:12:39 04:17:04 63° 75° (ENE) 04:21:31 437.445
DOVE 4 25 Nov 04:14:03 04:18:30 32° 96° (E) 04:22:43 437.250
STARS 25 Nov 04:24:29 04:28:23 31° 71° (ENE) 04:32:17 437.465
AO-7 25 Nov 04:44:06 04:51:27 36° 297° (WNW) 04:58:50 .
RS-15 25 Nov 04:46:06 04:56:09 36° 255° (WSW) 05:05:49 29.354- 29.394
KAITUO 1B 25 Nov 05:03:12 05:03:36 10° 92° (E) 05:04:01 145.475/437.950
SO-50 25 Nov 05:18:27 05:22:59 50° 58° (ENE) 05:27:34 436.795
XW-2D 25 Nov 05:27:12 05:30:42 34° 98° (E) 05:34:12 145.860 - 145.880
NUDT-PHONESAT 25 Nov 05:37:06 05:40:21 28° 97° (E) 05:43:37 437.300
XW-2B 25 Nov 05:42:00 05:45:45 52° 100° (E) 05:49:29 145.730 - 145.750
FALCONSAT 3 25 Nov 05:45:28 05:47:10 13° 148° (SSE) 05:48:54 435.103
HO-68 25 Nov 05:47:34 05:52:47 21° 94° (E) 05:57:58 435.675
YUBILEINY 25 Nov 05:50:34 05:58:51 46° 282° (WNW) 06:07:15 435.215
CUTE-I 25 Nov 05:51:15 05:56:27 50° 100° (E) 06:01:37 437.470
DOVE 4 25 Nov 05:52:00 05:55:56 23° 292° (WNW) 05:59:42 437.250
STRAND 1 25 Nov 06:01:10 06:05:51 37° 71° (ENE) 06:10:33 437.568
STARS 25 Nov 06:01:33 06:04:42 19° 265° (W) 06:07:52 437.465
XW-2C 25 Nov 06:07:52 06:11:40 64° 283° (WNW) 06:15:27 145.795 - 145.815
FO-29 25 Nov 06:11:09 06:15:14 17° 59° (ENE) 06:19:30 435.910
XW-2F 25 Nov 06:14:14 06:17:58 57° 283° (WNW) 06:21:42 145.980 - 146.000
LilacSat-2 25 Nov 06:15:47 06:19:28 46° 285° (WNW) 06:23:10 437.200
CUTE 1.7 + AOD 2 25 Nov 06:18:47 06:22:36 31° 97° (E) 06:26:23 437.475
CUBEBUG 2 25 Nov 06:27:13 06:30:20 20° 95° (E) 06:33:26 437.445
KAITUO 1B 25 Nov 06:34:10 06:37:42 40° 286° (WNW) 06:41:15 145.475/437.950
AAUSAT CUBESAT 2 25 Nov 06:35:28 06:36:09 10° 92° (E) 06:36:49 437.432
SEEDS 25 Nov 06:40:07 06:43:57 32° 97° (E) 06:47:46 437.485
ZACube-1 25 Nov 06:55:32 06:56:54 11° 93° (E) 06:58:15 437.345
SO-50 25 Nov 07:00:24 07:03:01 15° 252° (WSW) 07:05:38 436.795
XW-2D 25 Nov 07:02:43 07:04:30 13° 292° (WNW) 07:06:19 145.860 - 145.880
NUDT-PHONESAT 25 Nov 07:11:50 07:13:55 14° 291° (WNW) 07:15:59 437.300
UWE-3 25 Nov 07:13:33 07:17:28 40° 99° (E) 07:21:24 435.000/436.395/437.385
XW-2A 25 Nov 07:20:07 07:23:21 43° 99° (E) 07:26:34 145.665 - 145.685
FALCONSAT 3 25 Nov 07:22:14 07:25:48 51° 160° (SSE) 07:29:24 435.103
PCSat 25 Nov 07:23:11 07:27:06 20° 52° (NE) 07:31:00 145.827
CUTE-I 25 Nov 07:32:34 07:36:02 18° 295° (WNW) 07:39:30 437.470
HO-68 25 Nov 07:33:49 07:40:51 60° 289° (WNW) 07:47:51 435.675
STRAND 1 25 Nov 07:41:11 07:45:03 21° 265° (W) 07:48:57 437.568
AO-73 25 Nov 07:41:21 07:45:15 37° 98° (E) 07:49:11 145.935
FO-29 25 Nov 07:52:26 07:59:05 85° 256° (WSW) 08:06:36 435.910
Oscar 11 25 Nov 07:52:33 07:56:30 33° 98° (E) 08:00:25 .
CUTE 1.7 + AOD 2 25 Nov 07:55:13 07:58:09 18° 291° (WNW) 08:01:04 437.475
CUBEBUG 2 25 Nov 08:03:31 08:06:51 24° 289° (WNW) 08:10:12 437.445
AAUSAT CUBESAT 2 25 Nov 08:07:46 08:11:49 49° 285° (WNW) 08:15:50 437.432
UNISAT 6 25 Nov 08:07:59 08:11:29 22° 70° (ENE) 08:14:56 437.425
TIGRISAT 25 Nov 08:11:02 08:14:30 22° 70° (ENE) 08:17:55 435.000
SEEDS 25 Nov 08:16:34 08:19:20 17° 291° (WNW) 08:22:06 437.485
ZACube-1 25 Nov 08:29:22 08:33:20 44° 285° (WNW) 08:37:21 437.345
UWE-3 25 Nov 08:51:36 08:53:32 13° 292° (WNW) 08:55:28 435.000/436.395/437.385
FALCONSAT 3 25 Nov 09:01:12 09:04:52 73° 354° (N) 09:08:34 435.103
PCSat 25 Nov 09:05:32 09:10:46 51° 249° (WSW) 09:15:59 145.827
PRISM 25 Nov 09:15:04 09:18:55 40° 73° (ENE) 09:22:49 437.425
AO-73 25 Nov 09:18:54 09:21:08 14° 292° (WNW) 09:23:23 145.935
EO-88 25 Nov 09:22:26 09:25:43 31° 98° (E) 09:29:01 145.990 - 145.960
DELFI C3 25 Nov 09:28:52 09:32:52 86° 282° (WNW) 09:36:50 145.870
Oscar 11 25 Nov 09:29:30 09:32:19 17° 291° (WNW) 09:35:10 .
Max Valier Satellite 25 Nov 09:34:58 09:38:39 77° 102° (ESE) 09:42:20 145.860
FO-29 25 Nov 09:43:16 09:45:13 11° 274° (W) 09:47:14 435.910
UNISAT 6 25 Nov 09:44:06 09:48:00 28° 263° (W) 09:51:51 437.425
TIGRISAT 25 Nov 09:47:05 09:51:00 28° 263° (W) 09:54:52 435.000
EO-79 25 Nov 10:09:26 10:12:08 17° 68° (ENE) 10:14:48 145.935-145.965
NANOSAT C BR1 25 Nov 10:09:47 10:12:07 15° 68° (ENE) 10:14:26 145.865
BEESAT 2 25 Nov 10:13:51 10:16:07 14° 50° (NE) 10:18:21 435.950
AIST 2D 25 Nov 10:25:08 10:28:34 87° 88° (E) 10:32:03 435.315
POLYITAN 1 25 Nov 10:25:14 10:28:42 25° 71° (ENE) 10:32:11 437.675
BEESAT 3 25 Nov 10:26:55 10:30:50 74° 61° (ENE) 10:34:40 437.485
AO-85 25 Nov 10:35:48 10:38:00 13° 48° (NE) 10:40:15 145.980
FALCONSAT 3 25 Nov 10:40:23 10:44:04 87° 15° (NNE) 10:47:46 435.103
QB50P2 25 Nov 10:48:11 10:52:20 55° 75° (ENE) 10:56:28 145.880/145.840
PRISM 25 Nov 10:52:29 10:54:19 13° 267° (W) 10:56:10 437.425
EO-88 25 Nov 10:57:23 10:59:01 13° 291° (WNW) 11:00:39 145.990 - 145.960
LO-87 25 Nov 11:04:24 11:07:57 84° 102° (ESE) 11:11:27 145.935 - 145.965
O/OREOS (USA 219) 25 Nov 11:05:28 11:08:31 18° 100° (E) 11:11:34 437.305
Oscar 19 25 Nov 11:21:47 11:24:03 13° 64° (ENE) 11:26:18 437.125/150
ESTCUBE 1 25 Nov 11:24:08 11:28:41 89° 99° (E) 11:33:13 437.505/2401.250
VELOX 1 25 Nov 11:26:02 11:27:06 11° 92° (E) 11:28:11 145.980
DUCHIFAT 1 25 Nov 11:29:47 11:33:58 67° 259° (W) 11:38:09 145.980
SPROUT 25 Nov 11:43:21 11:47:06 30° 97° (E) 11:50:49 437.525
NANOSAT C BR1 25 Nov 11:43:30 11:47:27 38° 261° (W) 11:51:23 145.865
EO-79 25 Nov 11:43:44 11:47:34 33° 262° (W) 11:51:24 145.935-145.965
BEESAT 2 25 Nov 11:50:14 11:54:02 43° 246° (WSW) 11:57:46 435.950
JUGNU 25 Nov 12:00:44 12:03:56 15° 168° (SSE) 12:07:07 437.505
POLYITAN 1 25 Nov 12:01:09 12:04:23 21° 264° (W) 12:07:38 437.675
AO-91 25 Nov 12:01:50 12:06:37 34° 71° (ENE) 12:11:23 145.960
BUGSAT 1 25 Nov 12:02:55 12:07:03 64° 76° (ENE) 12:11:10 437.445
AO-85 25 Nov 12:14:01 12:18:51 78° 242° (WSW) 12:24:01 145.980
FALCONSAT 3 25 Nov 12:19:40 12:23:00 32° 204° (SSW) 12:26:20 435.103
Gurwin Techsat 1B 25 Nov 12:22:58 12:27:52 39° 71° (ENE) 12:32:47 435.225
M-CUBED/EXP-1 PRIME 25 Nov 12:42:37 12:43:54 11° 60° (ENE) 12:45:13 437.505
O/OREOS (USA 219) 25 Nov 12:43:23 12:47:35 35° 294° (WNW) 12:51:49 437.305
NO-84 25 Nov 12:56:20 12:59:44 78° 312° (NW) 13:03:28 435.350 FM
Oscar 19 25 Nov 12:57:42 13:02:45 64° 258° (WSW) 13:07:51 437.125/150
50 SAT 25 Nov 12:58:30 13:01:15 26° 98° (E) 13:03:57 437.505
VELOX 1 25 Nov 12:59:28 13:03:48 53° 286° (WNW) 13:08:06 145.980
SPROUT 25 Nov 13:19:50 13:22:43 18° 291° (WNW) 13:25:36 437.525
ITAMSAT 1 25 Nov 13:25:44 13:27:17 11° 62° (ENE) 13:28:50 435.822/435.867
DX 1 25 Nov 13:29:07 13:33:28 65° 102° (ESE) 13:37:47 434.975-435.025
AO-91 25 Nov 13:38:27 13:42:57 27° 265° (W) 13:47:29 145.960
AO-7 25 Nov 13:45:58 13:53:41 46° 65° (ENE) 14:01:26 .
JUGNU 25 Nov 13:48:06 13:52:15 20° 178° (S) 13:56:23 437.505
UKube-1 25 Nov 14:00:35 14:04:55 88° 287° (WNW) 14:09:14 .
Gurwin Techsat 1B 25 Nov 14:03:54 14:07:52 21° 265° (W) 14:11:52 435.225
YUBILEINY 25 Nov 14:12:25 14:15:21 12° 63° (ENE) 14:18:17 435.215
M-CUBED/EXP-1 PRIME 25 Nov 14:14:24 14:17:47 41° 257° (WSW) 14:21:27 437.505
50 SAT 25 Nov 14:32:06 14:32:59 11° 291° (WNW) 14:33:52 437.505
NO-84 25 Nov 14:36:42 14:37:42 11° 331° (NNW) 14:38:45 435.350 FM
MOZHAYETS 4 25 Nov 14:51:54 14:56:25 58° 101° (E) 15:00:56
ITAMSAT 1 25 Nov 15:00:48 15:06:01 78° 257° (WSW) 15:11:16 435.822/435.867
BEESAT 25 Nov 15:13:50 15:18:35 73° 102° (ESE) 15:23:19 436.000
DOVE 4 25 Nov 15:15:17 15:19:16 23° 68° (ENE) 15:23:20 437.250
CUBESAT XI-V 25 Nov 15:17:24 15:21:09 23° 96° (E) 15:24:53 437.345
ITUPSAT 1 25 Nov 15:27:00 15:31:46 83° 285° (WNW) 15:36:31 437.325
JUGNU 25 Nov 15:36:53 15:40:34 17° 189° (S) 15:44:14 437.505
AO-7 25 Nov 15:39:06 15:46:26 35° 261° (W) 15:53:51 .
SRMSAT 25 Nov 15:42:15 15:46:03 18° 172° (S) 15:49:50 437.500
YUBILEINY 25 Nov 16:04:46 16:13:39 75° 83° (E) 16:22:27 435.215
KKS-1 25 Nov 16:08:33 16:11:16 16° 94° (E) 16:13:57 437.445
HO-68 25 Nov 16:16:34 16:18:13 11° 55° (NE) 16:19:51 435.675
XW-2B 25 Nov 16:20:48 16:22:55 15° 69° (ENE) 16:25:01 145.730 - 145.750
MOZHAYETS 4 25 Nov 16:31:29 16:33:01 12° 295° (WNW) 16:34:34
XW-2C 25 Nov 16:45:23 16:48:41 31° 73° (ENE) 16:52:01 145.795 - 145.815
RS-15 25 Nov 16:49:36 17:01:17 54° 109° (ESE) 17:13:01 29.354- 29.394
XW-2F 25 Nov 16:51:07 16:54:29 34° 74° (ENE) 16:57:53 145.980 - 146.000
DOVE 4 25 Nov 16:51:59 16:56:37 36° 263° (W) 17:01:27 437.250
LilacSat-2 25 Nov 16:53:33 16:57:08 44° 75° (ENE) 17:00:43 437.200
CUBESAT XI-V 25 Nov 16:54:25 16:58:26 29° 289° (WNW) 17:02:27 437.345
BEESAT 25 Nov 16:55:22 16:55:41 10° 297° (WNW) 16:56:02 436.000
nSIGHT-1 25 Nov 16:56:26 16:56:56 10° 126° (SE) 16:57:26 .
CUTE 1.7 + AOD 2 25 Nov 17:09:05 17:11:17 14° 68° (ENE) 17:13:29 437.475
CUTE-I 25 Nov 17:09:10 17:14:25 57° 73° (ENE) 17:19:41 437.470
KAITUO 1B 25 Nov 17:09:48 17:13:19 46° 75° (ENE) 17:16:52 145.475/437.950
CUBEBUG 2 25 Nov 17:22:51 17:24:49 13° 67° (ENE) 17:26:45 437.445
SEEDS 25 Nov 17:29:22 17:31:35 14° 68° (ENE) 17:33:49 437.485
SRMSAT 25 Nov 17:30:23 17:34:32 20° 182° (S) 17:38:40 437.500
XW-2D 25 Nov 17:38:10 17:41:43 42° 261° (W) 17:45:18 145.860 - 145.880
KKS-1 25 Nov 17:43:48 17:47:54 37° 288° (WNW) 17:51:58 437.445
NUDT-PHONESAT 25 Nov 17:45:16 17:48:49 55° 260° (W) 17:52:25 437.300
STARS 25 Nov 17:52:56 17:57:19 80° 283° (WNW) 18:01:40 437.465
XW-2B 25 Nov 17:53:33 17:56:48 28° 263° (W) 18:00:03 145.730 - 145.750
ISS 25 Nov 17:54:25 17:57:30 40° 132° (SE) 18:00:36 437.550
HO-68 25 Nov 17:57:31 18:04:38 70° 72° (ENE) 18:11:48 435.675
YUBILEINY 25 Nov 18:03:46 18:09:23 19° 280° (W) 18:15:00 435.215
UWE-3 25 Nov 18:07:11 18:10:33 22° 71° (ENE) 18:13:51 435.000/436.395/437.385
STRAND 1 25 Nov 18:16:25 18:19:39 17° 94° (E) 18:22:52 437.568
XW-2C 25 Nov 18:21:12 18:22:54 13° 267° (W) 18:24:37 145.795 - 145.815
XW-2F 25 Nov 18:27:25 18:28:41 11° 267° (W) 18:29:58 145.980 - 146.000
nSIGHT-1 25 Nov 18:29:38 18:32:47 53° 319° (NW) 18:35:57 .
AO-73 25 Nov 18:33:52 18:36:51 19° 70° (ENE) 18:39:48 145.935
CUTE 1.7 + AOD 2 25 Nov 18:42:48 18:46:43 39° 262° (W) 18:50:41 437.475
Oscar 11 25 Nov 18:44:36 18:47:20 17° 68° (ENE) 18:50:03 .
CUTE-I 25 Nov 18:51:51 18:54:45 15° 267° (W) 18:57:39 437.470
AAUSAT CUBESAT 2 25 Nov 18:53:26 18:57:29 61° 76° (ENE) 19:01:35 437.432
CUBEBUG 2 25 Nov 18:56:33 19:00:59 50° 260° (W) 19:05:18 437.445
RS-15 25 Nov 19:02:25 19:13:59 45° 310° (NW) 19:25:33 29.354- 29.394
SEEDS 25 Nov 19:03:01 19:06:53 38° 262° (W) 19:10:48 437.485
FO-29 25 Nov 19:08:10 19:13:24 20° 90° (E) 19:18:19 435.910
XW-2A 25 Nov 19:19:40 19:22:48 40° 261° (W) 19:25:57 145.665 - 145.685
SRMSAT 25 Nov 19:19:58 19:22:59 14° 192° (SSW) 19:26:02 437.500
ZACube-1 25 Nov 19:20:45 19:25:03 83° 79° (ENE) 19:29:17 437.345
SO-50 25 Nov 19:29:16 19:33:21 36° 113° (ESE) 19:37:28 436.795
ISS 25 Nov 19:31:44 19:34:06 18° 328° (NNW) 19:36:27 437.550
NO-84 25 Nov 19:32:32 19:35:21 17° 35° (NE) 19:38:11 435.350 FM
UWE-3 25 Nov 19:43:07 19:46:50 26° 263° (W) 19:50:29 435.000/436.395/437.385
HO-68 25 Nov 19:48:15 19:52:50 18° 267° (W) 19:57:26 435.675
STRAND 1 25 Nov 19:54:08 19:59:00 46° 288° (WNW) 20:03:50 437.568
AO-73 25 Nov 20:09:09 20:12:52 28° 263° (W) 20:16:31 145.935
DELFI C3 25 Nov 20:10:18 20:13:45 29° 72° (ENE) 20:17:14 145.870
Max Valier Satellite 25 Nov 20:10:47 20:13:20 18° 71° (ENE) 20:15:53 145.860
Oscar 11 25 Nov 20:19:15 20:23:09 34° 262° (W) 20:27:04 .
FO-29 25 Nov 20:51:20 20:59:00 68° 287° (WNW) 21:05:59 435.910
NO-84 25 Nov 21:08:50 21:13:05 70° 230° (SW) 21:17:16 435.350 FM
SO-50 25 Nov 21:10:35 21:13:54 20° 309° (NW) 21:17:14 436.795
O/OREOS (USA 219) 25 Nov 21:18:30 21:21:44 19° 61° (ENE) 21:24:57 437.305
RS-15 25 Nov 21:24:34 21:30:58 15° 340° (NNW) 21:37:20 29.354- 29.394
EO-88 25 Nov 21:29:04 21:32:35 49° 260° (W) 21:36:07 145.990 - 145.960
LO-87 25 Nov 21:37:17 21:39:46 18° 71° (ENE) 21:42:14 145.935 - 145.965
UNISAT 6 25 Nov 21:38:34 21:42:50 80° 102° (ESE) 21:47:06 437.425
TIGRISAT 25 Nov 21:41:25 21:45:40 78° 104° (ESE) 21:49:55 435.000
Max Valier Satellite 25 Nov 21:44:10 21:46:58 21° 264° (W) 21:49:47 145.860
DELFI C3 25 Nov 21:46:03 21:48:29 16° 266° (W) 21:50:57 145.870
PCSat 25 Nov 22:00:23 22:05:14 35° 109° (ESE) 22:10:07 145.827
ESTCUBE 1 25 Nov 22:19:40 22:23:58 50° 74° (ENE) 22:28:18 437.505/2401.250
SPROUT 25 Nov 22:33:57 22:36:25 15° 68° (ENE) 22:38:54 437.525
PRISM 25 Nov 22:34:37 22:38:46 71° 284° (WNW) 22:42:51 437.425
QB50P2 25 Nov 22:38:47 22:40:15 12° 93° (E) 22:41:42 145.880/145.840
FO-29 25 Nov 22:40:10 22:42:27 12° 305° (NW) 22:44:41 435.910
O/OREOS (USA 219) 25 Nov 22:57:08 23:01:11 33° 256° (WSW) 23:05:12 437.305
LO-87 25 Nov 23:10:12 23:12:59 21° 264° (W) 23:15:46 145.935 - 145.965
DUCHIFAT 1 25 Nov 23:17:48 23:21:10 24° 96° (E) 23:24:32 145.980
AIST 2D 25 Nov 23:26:26 23:29:48 42° 284° (WNW) 23:33:09 435.315
NANOSAT C BR1 25 Nov 23:31:05 23:35:02 41° 99° (E) 23:38:58 145.865
EO-79 25 Nov 23:31:29 23:35:32 48° 100° (E) 23:39:35 145.935-145.965
PCSat 25 Nov 23:44:03 23:48:37 27° 304° (NW) 23:53:13 145.827
RS-15 25 Nov 23:45:01 23:51:11 15° 19° (NNE) 23:57:12 29.354- 29.394
POLYITAN 1 25 Nov 23:48:14 23:52:26 80° 101° (ESE) 23:56:37 437.675
BUGSAT 1 25 Nov 23:50:34 23:51:48 11° 93° (E) 23:53:01 437.445
VELOX 1 25 Nov 23:52:17 23:56:43 81° 76° (ENE) 00:01:11 145.980
ESTCUBE 1 25 Nov 23:59:20 00:00:59 12° 268° (W) 00:02:39 437.505/2401.250
SPROUT 26 Nov 00:07:58 00:11:58 37° 262° (W) 00:15:57 437.525
QB50P2 26 Nov 00:12:12 00:16:12 44° 286° (WNW) 00:20:11 145.880/145.840
BEESAT 3 26 Nov 00:12:44 00:16:11 29° 112° (ESE) 00:19:40 437.485
DX 1 26 Nov 00:20:52 00:24:48 34° 72° (ENE) 00:28:46 434.975-435.025
ISS 26 Nov 00:26:15 00:27:43 12° 28° (NNE) 00:29:12 437.550
Gurwin Techsat 1B 26 Nov 00:43:34 00:47:31 21° 95° (E) 00:51:26 435.225
UKube-1 26 Nov 00:51:00 00:55:07 46° 73° (ENE) 00:59:15 .
50 SAT 26 Nov 00:52:40 00:55:52 76° 258° (WSW) 00:59:06 437.505
DUCHIFAT 1 26 Nov 00:53:28 00:56:40 22° 290° (WNW) 00:59:52 145.980
nSIGHT-1 26 Nov 00:59:34 01:02:21 27° 36° (NE) 01:05:07 .
NANOSAT C BR1 26 Nov 01:08:19 01:10:19 13° 293° (WNW) 01:12:20 145.865
EO-79 26 Nov 01:09:23 01:10:49 12° 294° (WNW) 01:12:14 145.935-145.965
